Location: Newark
(42.7133°N, 87.7910°W)
Time: 21:20:39
(UTC+00:00)

Vanguard 1 - Pass Details

Date: 20 September 2019
Orbit: 653 x 3830 km, 34.2° (Epoch: 17 October)

Event Time Altitude Azimuth Distance (km) Brightness Sun altitude
Rises 06:35:42 0° 217° (SW) 7,495 - -44.6°
Reaches altitude 10° 06:40:57 10° 211° (SSW) 6,706 - -44.3°
Exits shadow 07:01:32 43° 150° (SSE) 4,619 13.0 -42.8°
Maximum altitude 07:01:41 43° 149° (SSE) 4,615 13.1 -42.8°
Drops below altitude 10° 07:19:17 10° 87° (E) 5,814 14.3 -41.2°
Sets 07:23:21 0° 81° (E) 6,472 14.7 -40.8°
